| time (UTC) | temp C | wind direction | speed KPH | gust KPH | rain 1hr cm | rain 24hr cm | rain mn cm | humidity % | barometer mb |
| 20260509214758 | 15 | 345 | 1.6 | 4.8 | 0.33 | 0.36 | 0.36 | 90 | 1008.2 |
| 20260509193548 | 20 | 248 | 0.0 | 1.6 | 0.00 | 0.00 | 0.00 | 70 | 1006.5 |
| 20260509192947 | 20 | 248 | 0.0 | 1.6 | 0.00 | 0.00 | 0.00 | 69 | 1006.5 |
| 20260509191747 | 20 | 203 | 0.0 | 3.2 | 0.00 | 0.00 | 0.00 | 71 | 1006.3 |
| 20260509190546 | 20 | 203 | 0.0 | 0.0 | 0.00 | 0.00 | 0.00 | 71 | 1006.2 |
| 20260509185946 | 20 | 203 | 0.0 | 0.0 | 0.00 | 0.00 | 0.00 | 74 | 1006.2 |
| 20260509184745 | 21 | 201 | 0.0 | 0.0 | 0.00 | 0.00 | 0.00 | 73 | 1006.2 |
| 20260509181143 | 22 | 109 | 0.0 | 0.0 | 0.00 | 0.00 | 0.00 | 66 | 1006.2 |
| 20260509180542 | 22 | 103 | 0.0 | 0.0 | 0.00 | 0.00 | 0.00 | 65 | 1006.1 |
| 20260509174741 | 23 | 103 | 0.0 | 0.0 | 0.00 | 0.00 | 0.00 | 62 | 1006.1 |
| 20260509174142 | 23 | 103 | 0.0 | 0.0 | 0.00 | 0.00 | 0.00 | 58 | 1006.1 |
| 20260509171740 | 23 | 103 | 1.6 | 4.8 | 0.00 | 0.00 | 0.00 | 57 | 1006.1 |
| 20260509171139 | 23 | 104 | 3.2 | 6.4 | 0.00 | 0.00 | 0.00 | 58 | 1006.1 |
| 20260509165939 | 23 | 108 | 4.8 | 11.3 | 0.00 | 0.00 | 0.00 | 54 | 1006.0 |
| 20260509165338 | 23 | 97 | 6.4 | 12.9 | 0.00 | 0.00 | 0.00 | 55 | 1005.9 |
| 20260509164138 | 24 | 106 | 1.6 | 4.8 | 0.00 | 0.00 | 0.00 | 53 | 1005.8 |
| 20260509162337 | 24 | 158 | 3.2 | 6.4 | 0.00 | 0.00 | 0.00 | 52 | 1006.0 |
| 20260509155935 | 24 | 121 | 4.8 | 12.9 | 0.00 | 0.00 | 0.00 | 52 | 1006.4 |
| 20260509154735 | 24 | 120 | 3.2 | 6.4 | 0.00 | 0.00 | 0.00 | 53 | 1006.5 |
| 20260509154134 | 24 | 90 | 4.8 | 6.4 | 0.00 | 0.00 | 0.00 | 52 | 1006.4 |
| 20260509153534 | 23 | 94 | 4.8 | 8.0 | 0.00 | 0.00 | 0.00 | 53 | 1006.4 |
| 20260509152934 | 23 | 119 | 6.4 | 9.7 | 0.00 | 0.00 | 0.00 | 52 | 1006.5 |
| 20260509145332 | 23 | 73 | 4.8 | 14.5 | 0.00 | 0.00 | 0.00 | 55 | 1006.9 |
| 20260509142930 | 24 | 117 | 3.2 | 6.4 | 0.00 | 0.00 | 0.00 | 54 | 1007.1 |
| 20260509142330 | 23 | 65 | 4.8 | 11.3 | 0.00 | 0.00 | 0.00 | 53 | 1007.1 |
| 20260509135929 | 23 | 82 | 3.2 | 9.7 | 0.00 | 0.00 | 0.00 | 55 | 1007.3 |
| 20260509135328 | 23 | 169 | 4.8 | 14.5 | 0.00 | 0.00 | 0.00 | 54 | 1007.3 |
| 20260509134728 | 23 | 77 | 6.4 | 14.5 | 0.00 | 0.00 | 0.00 | 55 | 1007.3 |
| 20260509132326 | 23 | 109 | 8.0 | 16.1 | 0.00 | 0.00 | 0.00 | 55 | 1007.6 |
| 20260509131126 | 23 | 100 | 9.7 | 19.3 | 0.00 | 0.00 | 0.00 | 55 | 1007.7 |
| 20260509125325 | 23 | 86 | 6.4 | 14.5 | 0.00 | 0.00 | 0.00 | 56 | 1007.8 |
| 20260509123524 | 23 | 130 | 8.0 | 14.5 | 0.00 | 0.00 | 0.00 | 55 | 1008.0 |
| 20260509121723 | 23 | 56 | 8.0 | 17.7 | 0.00 | 0.00 | 0.00 | 57 | 1008.0 |
| 20260509121122 | 23 | 84 | 9.7 | 17.7 | 0.00 | 0.00 | 0.00 | 55 | 1007.9 |
| 20260509115922 | 23 | 115 | 8.0 | 17.7 | 0.00 | 0.00 | 0.00 | 57 | 1008.1 |
| 20260509115320 | 23 | 115 | 8.0 | 16.1 | 0.00 | 0.00 | 0.00 | 57 | 1008.2 |
| 20260509114720 | 23 | 105 | 9.7 | 16.1 | 0.00 | 0.00 | 0.00 | 59 | 1008.2 |
| 20260509114120 | 22 | 76 | 8.0 | 19.3 | 0.00 | 0.00 | 0.00 | 58 | 1008.2 |
| 20260509113519 | 23 | 90 | 6.4 | 20.9 | 0.00 | 0.00 | 0.00 | 58 | 1008.0 |
| 20260509112920 | 22 | 68 | 8.0 | 16.1 | 0.00 | 0.00 | 0.00 | 59 | 1008.1 |
| 20260509112319 | 22 | 148 | 11.3 | 14.5 | 0.00 | 0.00 | 0.00 | 61 | 1008.1 |
| 20260509111719 | 22 | 84 | 11.3 | 22.5 | 0.00 | 0.00 | 0.00 | 61 | 1008.1 |
| 20260509111118 | 22 | 93 | 9.7 | 19.3 | 0.00 | 0.00 | 0.00 | 61 | 1008.2 |
| 20260509110518 | 21 | 137 | 9.7 | 17.7 | 0.00 | 0.00 | 0.00 | 61 | 1008.3 |
| 20260509105917 | 21 | 107 | 9.7 | 19.3 | 0.00 | 0.00 | 0.00 | 60 | 1008.4 |
| 20260509105317 | 21 | 92 | 9.7 | 20.9 | 0.00 | 0.00 | 0.00 | 61 | 1008.6 |
| 20260509104717 | 22 | 75 | 9.7 | 17.7 | 0.00 | 0.00 | 0.00 | 60 | 1008.6 |
| 20260509104116 | 21 | 99 | 11.3 | 19.3 | 0.00 | 0.00 | 0.00 | 61 | 1008.7 |
| 20260509103516 | 21 | 84 | 11.3 | 19.3 | 0.00 | 0.00 | 0.00 | 61 | 1008.8 |
| 20260509102915 | 21 | 57 | 9.7 | 17.7 | 0.00 | 0.00 | 0.00 | 62 | 1008.8 |
| 20260509102315 | 21 | 107 | 9.7 | 17.7 | 0.00 | 0.00 | 0.00 | 61 | 1008.9 |
| 20260509101715 | 21 | 115 | 9.7 | 16.1 | 0.00 | 0.00 | 0.00 | 60 | 1008.9 |
| 20260509101115 | 21 | 153 | 9.7 | 16.1 | 0.00 | 0.00 | 0.00 | 61 | 1009.0 |
| 20260509100515 | 21 | 99 | 8.0 | 19.3 | 0.00 | 0.00 | 0.00 | 62 | 1009.1 |
| 20260509095914 | 21 | 104 | 8.0 | 19.3 | 0.00 | 0.00 | 0.00 | 62 | 1009.2 |
| 20260509095314 | 21 | 79 | 6.4 | 16.1 | 0.00 | 0.00 | 0.00 | 63 | 1009.3 |
| 20260509094714 | 21 | 118 | 8.0 | 12.9 | 0.00 | 0.00 | 0.00 | 61 | 1009.4 |
| 20260509094113 | 20 | 78 | 8.0 | 16.1 | 0.00 | 0.00 | 0.00 | 61 | 1009.5 |
| 20260509093513 | 20 | 113 | 8.0 | 17.7 | 0.00 | 0.00 | 0.00 | 63 | 1009.5 |
| 20260509092912 | 20 | 126 | 8.0 | 16.1 | 0.00 | 0.00 | 0.00 | 62 | 1009.6 |
| 20260509092312 | 20 | 135 | 8.0 | 16.1 | 0.00 | 0.00 | 0.00 | 62 | 1009.5 |
| 20260509091712 | 20 | 101 | 6.4 | 16.1 | 0.00 | 0.00 | 0.00 | 63 | 1009.5 |
| 20260509091111 | 20 | 105 | 8.0 | 14.5 | 0.00 | 0.00 | 0.00 | 65 | 1009.5 |
| 20260509090511 | 19 | 82 | 8.0 | 16.1 | 0.00 | 0.00 | 0.00 | 66 | 1009.4 |
| 20260509085911 | 19 | 98 | 9.7 | 16.1 | 0.00 | 0.00 | 0.00 | 67 | 1009.3 |
| 20260509085310 | 18 | 50 | 9.7 | 19.3 | 0.00 | 0.00 | 0.00 | 67 | 1009.2 |
| 20260509084710 | 18 | 80 | 8.0 | 16.1 | 0.00 | 0.00 | 0.00 | 67 | 1009.1 |
| 20260509084109 | 18 | 71 | 6.4 | 14.5 | 0.00 | 0.00 | 0.00 | 66 | 1009.2 |
| 20260509083509 | 18 | 66 | 8.0 | 12.9 | 0.00 | 0.00 | 0.00 | 68 | 1009.2 |
| 20260509082909 | 18 | 74 | 6.4 | 17.7 | 0.00 | 0.00 | 0.00 | 66 | 1009.2 |
| 20260509082308 | 18 | 132 | 6.4 | 16.1 | 0.00 | 0.00 | 0.00 | 65 | 1009.3 |
| 20260509081708 | 18 | 77 | 6.4 | 12.9 | 0.00 | 0.00 | 0.00 | 67 | 1009.3 |
| 20260509081108 | 18 | 106 | 6.4 | 14.5 | 0.00 | 0.00 | 0.00 | 67 | 1009.3 |
| 20260509080507 | 18 | 120 | 8.0 | 14.5 | 0.00 | 0.00 | 0.00 | 68 | 1009.4 |
| 20260509075907 | 18 | 160 | 6.4 | 11.3 | 0.00 | 0.00 | 0.00 | 67 | 1009.4 |
| 20260509075307 | 18 | 112 | 6.4 | 12.9 | 0.00 | 0.00 | 0.00 | 68 | 1009.4 |
| 20260509074706 | 18 | 93 | 6.4 | 14.5 | 0.00 | 0.00 | 0.00 | 69 | 1009.5 |
| 20260509074106 | 17 | 107 | 6.4 | 14.5 | 0.00 | 0.00 | 0.00 | 68 | 1009.6 |
| 20260509073506 | 17 | 91 | 6.4 | 11.3 | 0.00 | 0.00 | 0.00 | 69 | 1009.6 |
| 20260509072905 | 17 | 101 | 6.4 | 14.5 | 0.00 | 0.00 | 0.00 | 70 | 1009.6 |
| 20260509072306 | 17 | 114 | 6.4 | 14.5 | 0.00 | 0.00 | 0.00 | 71 | 1009.7 |
| 20260509071705 | 17 | 99 | 6.4 | 12.9 | 0.00 | 0.00 | 0.00 | 71 | 1009.8 |
| 20260509071105 | 16 | 101 | 8.0 | 17.7 | 0.00 | 0.00 | 0.00 | 71 | 1009.9 |
| 20260509070506 | 16 | 106 | 6.4 | 16.1 | 0.00 | 0.00 | 0.00 | 71 | 1009.9 |
| 20260509065904 | 16 | 102 | 4.8 | 14.5 | 0.00 | 0.00 | 0.00 | 71 | 1009.9 |
| 20260509065306 | 16 | 109 | 4.8 | 12.9 | 0.00 | 0.00 | 0.00 | 73 | 1009.8 |
| 20260509064703 | 16 | 96 | 4.8 | 11.3 | 0.00 | 0.00 | 0.00 | 72 | 1009.8 |
| 20260509064103 | 16 | 95 | 3.2 | 14.5 | 0.00 | 0.00 | 0.00 | 72 | 1009.8 |
| 20260509063502 | 16 | 91 | 3.2 | 9.7 | 0.00 | 0.00 | 0.00 | 74 | 1009.8 |
| 20260509062902 | 15 | 99 | 4.8 | 11.3 | 0.00 | 0.00 | 0.00 | 74 | 1009.9 |
| 20260509062305 | 15 | 76 | 3.2 | 6.4 | 0.00 | 0.00 | 0.00 | 75 | 1010.0 |
| 20260509061701 | 15 | 91 | 3.2 | 12.9 | 0.00 | 0.00 | 0.00 | 75 | 1010.0 |
| 20260509061101 | 15 | 92 | 1.6 | 6.4 | 0.00 | 0.00 | 0.00 | 75 | 1009.9 |
| 20260509060500 | 15 | 86 | 1.6 | 3.2 | 0.00 | 0.00 | 0.00 | 77 | 1009.9 |
| 20260509055900 | 15 | 86 | 1.6 | 6.4 | 0.00 | 0.00 | 0.00 | 77 | 1009.9 |
| 20260509055300 | 15 | 76 | 1.6 | 4.8 | 0.00 | 0.00 | 0.00 | 78 | 1009.8 |
| 20260509054659 | 14 | 106 | 1.6 | 6.4 | 0.00 | 0.00 | 0.00 | 79 | 1009.8 |
| 20260509054059 | 14 | 88 | 1.6 | 6.4 | 0.00 | 0.00 | 0.00 | 80 | 1009.8 |
| 20260509053459 | 13 | 88 | 1.6 | 4.8 | 0.00 | 0.00 | 0.00 | 81 | 1009.7 |
| 20260509052859 | 13 | 90 | 1.6 | 4.8 | 0.00 | 0.00 | 0.00 | 82 | 1009.7 |
| 20260509052258 | 13 | 91 | 3.2 | 6.4 | 0.00 | 0.00 | 0.00 | 83 | 1009.6 |
| 20260509051701 | 13 | 78 | 3.2 | 4.8 | 0.00 | 0.00 | 0.00 | 84 | 1009.6 |
| 20260509051058 | 13 | 84 | 3.2 | 6.4 | 0.00 | 0.00 | 0.00 | 84 | 1009.6 |